Content
SEND FEEDBACK

Daily
Averages
Monthly
Summary
Canada

AMHERST, NOVA SCOTIA


Home > North America > Canada > Nova Scotia
Elevation: 66 feet     Latitude: 45 46N     Longitude: 064 15W

WEATHER
 
SELECT A DAY
Number of Records: 99,493;   Date Range: 6/19/04 - 10/20/14
 
SHARE

PRINT THIS DATA

[ ← Previous Day ]
WEATHER ALMANAC - JANUARY 10, 2013
[ Next Day → ]
[ °C ]   °F
Weather ElementAverageHighLow
Temperature34.8 °F37.2 °F (5:00 am)31.3 °F (11:00 am)
Dewpoint29.5 °F34.2 °F (4:00 am)23.7 °F (11:00 pm)
Humidity80.2 %96 % (11:00 am)59 % (8:00 pm)
Barometer29.86 in30.21 in (11:00 pm)29.62 in (5:00 am)
Wind Speed16.6 mph24.2 mph (11:00 pm)
Wind Gust31.1 mph (11:00 pm)
Weather ElementAverage
Wind DirectionWNW (292.7 °)

Weather ElementTotal
Precipitation0.01 in
Heating Degree Days30.8 (Base 65)
Averaged from 26 records on January 10, 2013
WEATHER CONDITIONS BREAKOUT
WIND DIRECTION BREAKOUT
WEATHER BY HOUR - JANUARY 10, 2013
[ °C ]   °F
Local TimeTemperatureDewpointHumidityBarometerVisibilityWind DirectionWind SpeedGust SpeedPrecipitationEventsConditions
2:00 AM35.0 °F33.0 °F90 %29.69 inSouth (170°)11.5 mph
2:00 AM34.9 °F33.1 °F93 %29.69 inSouth (170°)11.5 mph0.01 in
3:00 AM35.6 °F34.0 °F94 %29.66 inSouth (180°)10.4 mph
4:00 AM36.0 °F34.2 °F93 %29.63 inSSW (210°)9.2 mph
5:00 AM37.2 °F33.4 °F86 %29.62 inWSW (240°)10.4 mph
6:00 AM36.1 °F31.8 °F84 %29.63 inWest (270°)11.5 mph
7:00 AM35.6 °F30.7 °F82 %29.66 inWest (280°)12.7 mph
8:00 AM35.0 °F31.0 °F80 %29.69 inWNW (290°)18.4 mph
8:00 AM35.2 °F31.1 °F85 %29.69 inWNW (290°)18.4 mph25.3 mph
9:00 AM34.2 °F30.9 °F88 %29.73 inWNW (300°)15.0 mph
10:00 AM33.6 °F30.2 °F87 %29.77 inNW (310°)20.7 mph27.6 mph
11:00 AM31.3 °F30.4 °F96 %29.81 inNW (310°)20.7 mph
12:00 PM33.8 °F29.3 °F84 %29.82 inNW (320°)13.8 mph21.9 mph
1:00 PM34.7 °F27.9 °F76 %29.83 inNW (320°)19.6 mph26.5 mph
2:00 PM36.0 °F29.0 °F65 %29.86 inNNW (330°)19.6 mph
2:00 PM35.6 °F28.6 °F76 %29.86 inNNW (330°)19.6 mph27.6 mph
3:00 PM35.4 °F29.5 °F79 %29.90 inNNW (330°)16.1 mph26.5 mph
4:00 PM36.0 °F29.1 °F76 %29.94 inNNW (330°)15.0 mph
5:00 PM36.1 °F29.5 °F77 %29.99 inNW (320°)15.0 mph20.7 mph
6:00 PM35.6 °F27.5 °F72 %30.03 inNNW (330°)17.3 mph24.2 mph
7:00 PM35.4 °F26.8 °F71 %30.06 inNNW (330°)18.4 mph26.5 mph
8:00 PM35.0 °F26.0 °F59 %30.11 inNNW (330°)21.9 mph
8:00 PM34.7 °F25.9 °F70 %30.11 inNNW (330°)21.9 mph29.9 mph
9:00 PM33.6 °F25.9 °F73 %30.14 inNNW (330°)18.4 mph
10:00 PM31.3 °F25.0 °F77 %30.18 inNNW (330°)19.6 mph26.5 mph
11:00 PM32.0 °F23.7 °F71 %30.21 inNNW (330°)24.2 mph31.1 mph
Hourly data recorded from CXNP, located miles away from Amherst, Nova Scotia







STORIES FROM OUR PARTNERS